User: anonymous   Login
Location: Codford Saint Peter
(51.1597°N, 2.0531°W)
Time: 01:56:22
(UTC+00:00)
Language:

Cosmos 1707 - Orbit

View from above orbital plane
View from above orbital plane
View from above satellite
View from above satellite

Ground track
Ground track

The orbit data is extracted from the following two-line orbital elements,

1 16326U 85113A   20334.67281167  .00001194  00000-0  63276-4 0  9999
2 16326  82.5132  47.9135 0008887 259.7893 100.2336 15.14431497908207
Epoch (UTC): 29 November 2020 16:08:50
Eccentricity: 0.0008887
inclination: 82.5132°
perigee height: 516 km
apogee height: 529 km
right ascension of ascending node: 47.9135°
argument of perigee: 259.7893°
revolutions per day: 15.14431497
mean anomaly at epoch: 100.2336°
orbit number at epoch: 90820

The dashed part of the orbit path shows where the satellite is in the earth's shadow,  

DLR